Regional Weather Roundup
Issued by NWS Green Bay, WI

Home | Current Version | Previous Version | Text Only | Print | Product List | Glossary On
Versions: 1 2 3 4 5 6 7 8 9 10 11 12 13 14 15 16 17 18 19 20 21 22 23 24 25 26 27 28 29 30 31 32 33 34 35 36 37 38 39 40 41 42 43 44 45 46 47 48 49 50
384
ASUS43 KGRB 231711
RWRGRB

NORTH-CENTRAL AND NORTHEAST WISCONSIN REGIONAL WEATHER ROUNDUP
NATIONAL WEATHER SERVICE GREEN BAY WI
1100 AM CST THU NOV 23 2017

WIZ005-009-010>012-018-019-231800-
NORTH CENTRAL WISCONSIN

CITY           SKY/WX    TMP DP  RH WIND       PRES   REMARKS
IRONWOOD       SUNNY     33  19  56 SW6       29.86F
MANITOWISH WTR SUNNY     32  20  61 SW7       29.85F
ARBOR VITAE    SUNNY     34  22  61 W6        29.85F
EAGLE RIVER    SUNNY     32  19  58 W8        29.85F
LAND O LAKES   SUNNY     33  19  57 W6        29.86F
RHINELANDER    SUNNY     33  20  58 W8        29.87F
PHILLIPS       SUNNY     32  20  62 SW3       29.88F
ANTIGO         SUNNY     33  19  56 W6        29.88S
TOMAHAWK       SUNNY     33  18  55 W6        29.88F
MERRILL        SUNNY     33  20  59 W3        29.89F
$$

WIZ013-073-231800-
NORTHEAST WISCONSIN

CITY           SKY/WX    TMP DP  RH WIND       PRES   REMARKS
IRON MOUNTAIN  SUNNY     35  18  49 W12       29.85F
MARINETTE      PTSUNNY   35  20  54 VRB7      29.91F
OCONTO         SUNNY     37  20  50 W7        29.91F
$$

WIZ017-030-035>037-045-231800-
CENTRAL WISCONSIN

CITY           SKY/WX    TMP DP  RH WIND       PRES   REMARKS
MEDFORD        SUNNY     32  19  58 NW3       29.89F
WAUSAU         SUNNY     34  19  54 NW5       29.89F
MOSINEE        MOSUNNY   34  19  55 W6        29.92F
MARSHFIELD     SUNNY     36  18  48 W7        29.90F
WISC RAPIDS    SUNNY     36  19  50 NW3       29.93F
STEVENS POINT  SUNNY     33  18  52 SW5       29.91F
WAUPACA        SUNNY     40  19  42 W5        29.93F
SHAWANO        SUNNY     39  20  46 W8        29.90F
CLINTONVILLE   SUNNY     37  18  44 SW6       29.90F
WAUTOMA        SUNNY     38  19  46 W8        29.94R
$$

WIZ038-039-048-051-231800-
FOX VALLEY

CITY           SKY/WX    TMP DP  RH WIND       PRES   REMARKS
NWS GREEN BAY  MOSUNNY   38  22  52 VRB7      29.93S
APPLETON       SUNNY     37  16  41 W8        29.92R
OSHKOSH        SUNNY     38  22  52 W7        29.93R
FOND DU LAC    SUNNY     39  20  46 W8        29.94R
$$

WIZ022-050-052-231800-
EAST CENTRAL WISCONSIN

CITY           SKY/WX    TMP DP  RH WIND       PRES   REMARKS
EPHRAIM        PTSUNNY   35  22  61 W6G16     29.89F
WASHINGTON ISL CLOUDY    33  23  65 W10G16    29.89F
STURGEON BAY   PTSUNNY   35  22  58 W12       29.92F
MANITOWOC      SUNNY     38  20  48 W10       29.94S
SHEBOYGAN      SUNNY     39  21  48 W10       29.93F
$$

LMZ563-521-522-541>543-231800-
LAKESHORE

STATION/POSITION TIME  TEMP    WIND        PRES    VSBY  WAVE
                       AIR SEA DIR/SP/G                  HT/PER
                 (UTC) (F)     (DEG/KT/KT) (MB)    (MI)  (FT/S)
SHEBOYGAN LKSHOR 1700   37     250/  7/ 10 1014.2F
KEWAUNEE LKSHORE 1648   37     270/  6/ 12 1012.8R
NORTHPORT PIER   1702   35     280/  6/ 14 1012.5
N MID LAKE BUOY  1650   35 47  250/ 16/ 19 1013.5F         3/ 5
SISTER BAY LKSHO 1705   40     270/ 10/ 12   N/A
MENOMINEE LKSHOR 1648   34     240/  7/ 10 1012.7F
$$




USA.gov is the U.S. government's official web portal to all federal, state and local government web resources and services.